[[{"header":{"parameterUnit":"m.s-1","parameterCategory":2,"la1":30.2992,"la2":30.254,"lo1":-89.0895,"lo2":-89.0443,"dy":0.0025,"dx":0.0025,"nx":19,"ny":19,"refTime":"2026-04-04T21:00:00:Z","depth":"0","parameterNumber":2,"parameterNumberName":"U-component_of_CURRENTS"},"data":[0,0,0,0.2782,0.2783,0.28,0.28,0.283,0.283,0,0,0,0,0,0,0,0,0,0,0,0.2773,0.2774,0.2782,0.2783,0.28,0.28,0.283,0.283,0,0,0,0,0,0,0,0,0,0,0,0.2773,0.2774,0.2774,0.2783,0.28,0.28,0.2829,0.2812,0,0,0,0,0,0,0,0,0,0,0.2793,0.2788,0.2774,0.2774,0.2784,0.2801,0.28,0.2811,0.2813,0.2827,0,0.2836,0,0.2841,0.2833,0.2833,0,0,0,0.2772,0.2786,0.2794,0.2774,0.2784,0.2801,0.279,0.2812,0.2815,0.283,0.2837,0.2838,0.2841,0.2833,0.2834,0.2923,0.2923,0,0,0.2772,0.2773,0.2792,0.2796,0.2797,0.2789,0.279,0.2813,0.2819,0.2837,0.2838,0.2842,0.2834,0.2834,0.2922,0.2923,0,0,0,0.2776,0.2772,0.2778,0.2794,0.2801,0.279,0.2791,0.2817,0.282,0.2839,0.2842,0.2834,0.2835,0.2921,0.2922,0.2976,0,0,0,0.2775,0.2776,0.2778,0.2778,0.2801,0.2809,0.2795,0.2818,0.2821,0.2842,0.2834,0.2835,0.2921,0.2922,0.2973,0.2988,0,0,0,0.2771,0.2775,0.278,0.2779,0.2792,0.2809,0.2812,0.2819,0.2824,0.2833,0.2835,0.292,0.2922,0.297,0.2984,0.304,0,0,0,0.2767,0.278,0.278,0.2802,0.2792,0.2827,0.2812,0.2835,0.2846,0.2834,0.2921,0.2922,0.2969,0.2981,0.3037,0.3002,0.3013,0,0,0.278,0.2782,0.2796,0.2797,0.283,0.2823,0.2875,0.2879,0.2875,0.291,0.2912,0.2974,0.2984,0.3039,0.3088,0.3096,0,0,0,0.2798,0.2804,0.2818,0.2836,0.2861,0.2895,0.2901,0.2922,0.2958,0.2891,0.2989,0.2994,0.3027,0.3,0.3007,0.2937,0.2929,0.2929,0.2929,0.2791,0.2811,0.2829,0.2856,0.2893,0.2947,0.2986,0.3016,0.3004,0.3036,0.3049,0.3142,0.3114,0.3119,0.3048,0.3067,0.3067,0.3067,0.3067,0.2783,0.2776,0.2825,0.2847,0.2905,0.2957,0.306,0.3082,0.3157,0.312,0.315,0.3072,0.313,0.3051,0.3071,0.307,0.307,0.3069,0.3069,0.2738,0.2736,0.2759,0.2803,0.2872,0.2965,0.3063,0.3148,0.3199,0.3239,0.3215,0.3213,0.3133,0.326,0.326,0.3261,0.3261,0.3261,0.3261,0.2665,0.269,0.2695,0.2762,0.2793,0.2902,0.3064,0.3138,0.3243,0.3271,0.3271,0.3158,0.3201,0.3181,0.3266,0.3266,0.3265,0.3264,0.3264,0.2584,0.261,0.2614,0.2634,0.2713,0.275,0.2942,0.3106,0.3218,0.3263,0.3221,0.3293,0.3273,0.3266,0.3249,0.3347,0.3347,0.3347,0.3347,0.2519,0.2539,0.2513,0.2523,0.2576,0.2669,0.2708,0.2883,0.309,0.3143,0.3217,0.3148,0.3148,0.3117,0.3113,0.309,0.3146,0.3146,0.3146,0.2459,0.2471,0.2415,0.2443,0.2487,0.2542,0.2516,0.2601,0.2917,0.3132,0.3132,0.314,0.3032,0.3037,0.2977,0.2978,0.2937,0,0]},{"header":{"parameterUnit":"m.s-1","parameterCategory":2,"la1":30.2992,"la2":30.254,"lo1":-89.0895,"lo2":-89.0443,"dy":0.0025,"dx":0.0025,"nx":19,"ny":19,"refTime":"2026-04-04T21:00:00:Z","depth":"0","parameterNumber":3,"parameterNumberName":"V-component_of_CURRENTS"},"data":[0,0,0,0.0126,0.0126,0.0101,0.0101,0.0046,0.0046,0,0,0,0,0,0,0,0,0,0,0,0.0133,0.0133,0.0126,0.0126,0.0101,0.0101,0.0046,0.0046,0,0,0,0,0,0,0,0,0,0,0,0.0133,0.0133,0.0134,0.0126,0.0101,0.0101,0.0047,0.0069,0,0,0,0,0,0,0,0,0,0,0.0094,0.0104,0.0133,0.0134,0.0126,0.0101,0.0101,0.007,0.0067,0.0054,0,0.0057,0,0.0054,0.0043,0.0043,0,0,0,0.0116,0.0106,0.0106,0.0134,0.0126,0.0101,0.0109,0.0068,0.0066,0.0051,0.0056,0.0054,0.0054,0.0042,0.0042,0.0048,0.0049,0,0,0.0117,0.012,0.0108,0.0104,0.0127,0.011,0.0109,0.0067,0.0063,0.0056,0.0053,0.0053,0.0042,0.0042,0.0048,0.0048,0,0,0,0.0128,0.0121,0.0122,0.0106,0.0106,0.011,0.0108,0.0064,0.0067,0.0052,0.0052,0.0042,0.0041,0.0047,0.0048,0.0144,0,0,0,0.0128,0.0128,0.0122,0.0122,0.0107,0.0087,0.0106,0.007,0.0065,0.0052,0.0042,0.0041,0.0047,0.0048,0.0141,0.0201,0,0,0,0.0133,0.0128,0.0129,0.0122,0.0117,0.0088,0.0087,0.0068,0.0065,0.0043,0.0041,0.0047,0.0048,0.0138,0.0195,0.0242,0,0,0,0.013,0.0151,0.0129,0.0157,0.0118,0.0141,0.0087,0.0087,0.0074,0.0042,0.0047,0.0048,0.0137,0.0191,0.0238,0.033,0.0355,0,0,0.0161,0.0155,0.0175,0.0156,0.0204,0.0143,0.0183,0.0136,0.0084,0.0056,0.0056,0.0142,0.0194,0.0241,0.0388,0.0413,0,0,0,0.0189,0.0208,0.0218,0.0238,0.0237,0.0248,0.0194,0.0173,0.0147,0.0082,0.0136,0.0166,0.0192,0.0239,0.0258,0.0156,0.0053,0.0053,0.0052,0.0236,0.0251,0.03,0.0318,0.0328,0.0316,0.0318,0.0276,0.021,0.021,0.0239,0.0337,0.0387,0.0402,0.0296,0.0223,0.0223,0.0223,0.0224,0.0316,0.0359,0.0373,0.0425,0.0432,0.0458,0.0438,0.04,0.0392,0.0319,0.0339,0.0332,0.0429,0.0308,0.023,0.0229,0.0228,0.0227,0.0227,0.0364,0.039,0.0415,0.0497,0.0561,0.0567,0.0649,0.0592,0.0501,0.0518,0.0544,0.0543,0.044,0.0522,0.0523,0.0523,0.0524,0.0524,0.0524,0.0406,0.0438,0.0512,0.0588,0.0655,0.0752,0.0771,0.0779,0.0745,0.0672,0.0672,0.0472,0.0427,0.042,0.0532,0.053,0.0529,0.0529,0.0528,0.0485,0.0493,0.0616,0.0688,0.0858,0.1019,0.1015,0.1059,0.1008,0.1016,0.0715,0.0741,0.0719,0.0703,0.0702,0.088,0.088,0.088,0.088,0.0534,0.0549,0.0719,0.0859,0.103,0.1149,0.1339,0.1335,0.1097,0.0943,0.08,0.0733,0.0723,0.0694,0.0679,0.0673,0.084,0.0839,0.0839,0.0599,0.0647,0.0776,0.0913,0.1109,0.1307,0.151,0.1567,0.116,0.0819,0.0641,0.0643,0.0519,0.0512,0.0441,0.0428,0.0409,0,0]}],[{"header":{"parameterUnit":"m.s-1","parameterCategory":2,"la1":30.2992,"la2":30.254,"lo1":-89.0895,"lo2":-89.0443,"dy":0.0025,"dx":0.0025,"nx":19,"ny":19,"refTime":"2026-04-04T21:00:00:Z","depth":"2","parameterNumber":2,"parameterNumberName":"U-component_of_CURRENTS"},"data":[0,0,0,0.2616,0.2617,0.2652,0.2652,0.2694,0.2695,0,0,0,0,0,0,0,0,0,0,0,0.2603,0.2603,0.2616,0.2617,0.2652,0.2652,0.2694,0.2695,0,0,0,0,0,0,0,0,0,0,0,0.2602,0.2603,0.2603,0.2617,0.2652,0.2652,0.2694,0.2667,0,0,0,0,0,0,0,0,0,0,0.2632,0.2626,0.2603,0.2604,0.2617,0.2652,0.2652,0.2665,0.2668,0.268,0,0.2692,0,0.2699,0.2698,0.2699,0,0,0,0.2609,0.2623,0.2632,0.2604,0.2618,0.2652,0.2634,0.2667,0.267,0.2685,0.2693,0.2695,0.27,0.2699,0.2699,0.2791,0.2792,0,0,0.2607,0.2608,0.263,0.2635,0.2636,0.2633,0.2635,0.2669,0.2677,0.2693,0.2696,0.2701,0.2699,0.27,0.2791,0.2791,0,0,0,0.2607,0.2607,0.2615,0.2633,0.2642,0.2634,0.2637,0.2675,0.2678,0.2696,0.2701,0.2699,0.27,0.279,0.2791,0.2843,0,0,0,0.2605,0.2607,0.2614,0.2615,0.2642,0.2661,0.2642,0.2675,0.268,0.2701,0.2699,0.2701,0.2789,0.279,0.284,0.2857,0,0,0,0.2599,0.2607,0.2613,0.2615,0.2634,0.266,0.2665,0.2676,0.2683,0.2699,0.2701,0.2789,0.279,0.2838,0.2853,0.2905,0,0,0,0.2595,0.261,0.2614,0.2637,0.2634,0.2673,0.2664,0.2695,0.2712,0.27,0.2789,0.2791,0.2837,0.285,0.2902,0.2843,0.2852,0,0,0.2609,0.2612,0.2626,0.263,0.2665,0.2667,0.2722,0.2738,0.2739,0.2775,0.2777,0.2841,0.2853,0.2904,0.2928,0.2933,0,0,0,0.2627,0.2634,0.2648,0.267,0.2698,0.2738,0.2754,0.2778,0.2822,0.2757,0.2856,0.2862,0.2893,0.2852,0.2857,0.2798,0.2797,0.2797,0.2797,0.2624,0.2642,0.2662,0.2691,0.273,0.2792,0.2835,0.2871,0.2864,0.29,0.2916,0.3006,0.2963,0.2966,0.2933,0.2933,0.2933,0.2933,0.2933,0.2617,0.2612,0.2662,0.2687,0.2748,0.2806,0.291,0.2936,0.3016,0.2984,0.3012,0.2923,0.2975,0.2938,0.2937,0.2936,0.2936,0.2936,0.2935,0.2578,0.2577,0.2604,0.2651,0.2727,0.2821,0.2919,0.3006,0.3059,0.3099,0.306,0.3058,0.3032,0.3121,0.3121,0.3121,0.3122,0.3122,0.3122,0.2511,0.2539,0.255,0.2619,0.2656,0.2765,0.2928,0.2997,0.3091,0.3114,0.3113,0.3069,0.3063,0.3043,0.3127,0.3126,0.3125,0.3125,0.3125,0.2439,0.2466,0.2476,0.2502,0.2585,0.2614,0.2804,0.2945,0.3052,0.3083,0.3124,0.3123,0.3101,0.3094,0.3076,0.3164,0.3164,0.3164,0.3164,0.2381,0.2401,0.2386,0.2401,0.2451,0.2534,0.2544,0.265,0.2852,0.2904,0.2914,0.2834,0.284,0.2798,0.2798,0.2771,0.278,0.2779,0.2778,0.2328,0.2341,0.2296,0.2325,0.2365,0.2402,0.2333,0.2262,0.2437,0.2755,0.2769,0.3153,0.3063,0.3061,0.3015,0.3009,0.2973,0,0]},{"header":{"parameterUnit":"m.s-1","parameterCategory":2,"la1":30.2992,"la2":30.254,"lo1":-89.0895,"lo2":-89.0443,"dy":0.0025,"dx":0.0025,"nx":19,"ny":19,"refTime":"2026-04-04T21:00:00:Z","depth":"2","parameterNumber":3,"parameterNumberName":"V-component_of_CURRENTS"},"data":[0,0,0,0.0266,0.0265,0.0239,0.0238,0.0191,0.0191,0,0,0,0,0,0,0,0,0,0,0,0.0274,0.0274,0.0266,0.0265,0.0239,0.0238,0.0191,0.0191,0,0,0,0,0,0,0,0,0,0,0,0.0274,0.0274,0.0274,0.0265,0.0239,0.0238,0.0191,0.0212,0,0,0,0,0,0,0,0,0,0,0.0239,0.0246,0.0274,0.0274,0.0265,0.0239,0.0238,0.0214,0.0211,0.0202,0,0.0203,0,0.02,0.0188,0.0188,0,0,0,0.0256,0.0249,0.0248,0.0274,0.0265,0.0239,0.0248,0.0212,0.0209,0.0199,0.0203,0.0201,0.0199,0.0188,0.0188,0.0198,0.0198,0,0,0.0258,0.026,0.025,0.0247,0.0265,0.0249,0.0247,0.0211,0.0206,0.0202,0.02,0.0198,0.0187,0.0187,0.0197,0.0198,0,0,0,0.0268,0.0261,0.0261,0.0249,0.0247,0.0249,0.0247,0.0207,0.021,0.0199,0.0198,0.0187,0.0187,0.0197,0.0198,0.0285,0,0,0,0.0269,0.0267,0.0262,0.0261,0.0248,0.0228,0.0244,0.0212,0.0208,0.0198,0.0187,0.0186,0.0197,0.0197,0.0281,0.0339,0,0,0,0.0274,0.0267,0.0268,0.0262,0.0255,0.0229,0.0228,0.0211,0.0208,0.0188,0.0186,0.0196,0.0197,0.0278,0.0333,0.0372,0,0,0,0.0271,0.029,0.0268,0.0295,0.0256,0.0279,0.0228,0.0228,0.0217,0.0187,0.0197,0.0198,0.0277,0.0329,0.0368,0.0437,0.0459,0,0,0.03,0.0294,0.0314,0.0295,0.0341,0.0282,0.0321,0.0276,0.0227,0.0205,0.0205,0.0282,0.0333,0.0371,0.0494,0.0514,0,0,0,0.0328,0.0346,0.0356,0.0375,0.0374,0.0383,0.0333,0.0312,0.0286,0.0226,0.0278,0.0307,0.0328,0.0362,0.0379,0.0202,0.0202,0.0202,0.0202,0.0369,0.0386,0.0434,0.0452,0.0463,0.045,0.0449,0.0409,0.0348,0.0346,0.0374,0.046,0.0497,0.051,0.0358,0.0358,0.0358,0.0359,0.0359,0.0446,0.0487,0.0503,0.0554,0.056,0.0584,0.0564,0.0525,0.0515,0.0448,0.0463,0.0448,0.0534,0.0366,0.0364,0.0363,0.0363,0.0362,0.0362,0.049,0.0516,0.0541,0.062,0.068,0.0686,0.076,0.0704,0.0614,0.0628,0.0638,0.0637,0.052,0.0628,0.0628,0.0628,0.0629,0.0629,0.0629,0.0527,0.0559,0.0628,0.0703,0.0768,0.0856,0.0873,0.0875,0.0829,0.0755,0.0755,0.0551,0.0542,0.0535,0.0636,0.0635,0.0634,0.0634,0.0633,0.0599,0.0607,0.0723,0.0792,0.0954,0.1098,0.1095,0.1115,0.1062,0.1057,0.0815,0.0808,0.0787,0.0773,0.0771,0.0928,0.0928,0.0928,0.0928,0.0643,0.0657,0.0815,0.095,0.111,0.1218,0.1363,0.1318,0.1162,0.1031,0.1026,0.0979,0.0965,0.0949,0.0931,0.0929,0.1128,0.1128,0.1128,0.07,0.0745,0.0865,0.0996,0.1184,0.1356,0.1497,0.1433,0.1181,0.1132,0.1021,0.0949,0.0863,0.0848,0.0804,0.0783,0.0772,0,0]}],[{"header":{"parameterUnit":"m.s-1","parameterCategory":2,"la1":30.2992,"la2":30.254,"lo1":-89.0895,"lo2":-89.0443,"dy":0.0025,"dx":0.0025,"nx":19,"ny":19,"refTime":"2026-04-04T21:00:00:Z","depth":"4","parameterNumber":2,"parameterNumberName":"U-component_of_CURRENTS"},"data":[0,0,0,0.182,0.1823,0.1974,0.1974,0.2101,0.2102,0,0,0,0,0,0,0,0,0,0,0,0.1777,0.1778,0.1819,0.1823,0.1974,0.1974,0.2101,0.2102,0,0,0,0,0,0,0,0,0,0,0,0.1776,0.1778,0.1779,0.1824,0.1973,0.1974,0.2101,0.2004,0,0,0,0,0,0,0,0,0,0,0.1866,0.1846,0.1777,0.1779,0.1824,0.1973,0.1974,0.2,0.201,0.2014,0,0.2049,0,0.2073,0.2109,0.2109,0,0,0,0.1825,0.1838,0.1866,0.1779,0.1826,0.1973,0.1906,0.2006,0.2017,0.2026,0.2051,0.2057,0.2075,0.211,0.211,0.2238,0.2239,0,0,0.1817,0.1813,0.1859,0.1874,0.188,0.1901,0.1911,0.2014,0.2038,0.2052,0.206,0.2078,0.211,0.2111,0.2238,0.2239,0,0,0,0.1792,0.1808,0.1835,0.1868,0.1898,0.1906,0.1917,0.2034,0.204,0.2061,0.2079,0.2111,0.2112,0.2237,0.2238,0.2289,0,0,0,0.1787,0.1792,0.1831,0.1832,0.1897,0.1979,0.1934,0.2033,0.2045,0.2078,0.2111,0.2113,0.2236,0.2238,0.2286,0.2301,0,0,0,0.1767,0.179,0.181,0.1831,0.1893,0.1978,0.1992,0.2037,0.2055,0.211,0.2114,0.2236,0.2237,0.2283,0.2297,0.2343,0,0,0,0.1753,0.1783,0.181,0.1856,0.1892,0.1972,0.1992,0.2072,0.2122,0.2112,0.2236,0.2238,0.2282,0.2295,0.234,0.2045,0,0,0,0.177,0.1786,0.1809,0.1836,0.1902,0.195,0.2042,0.212,0.2143,0.2196,0.22,0.2287,0.2297,0.2343,0.2138,0,0,0,0,0.1799,0.1818,0.1845,0.1898,0.1958,0.2042,0.2114,0.2157,0.2248,0.2181,0.2304,0.2309,0.2336,0.2156,0.2245,0.2245,0.2245,0.2245,0.2245,0.1797,0.1829,0.1874,0.193,0.1999,0.2115,0.2189,0.2262,0.2278,0.2335,0.2363,0.2449,0.2261,0.2381,0.2381,0.2381,0.2382,0.2382,0.2382,0.1792,0.1801,0.1885,0.1944,0.2045,0.2142,0.2277,0.2329,0.2439,0.2426,0.245,0.2237,0.2387,0.2386,0.2385,0.2385,0.2384,0.2384,0.2384,0.1748,0.1755,0.1822,0.1921,0.2047,0.218,0.2291,0.2409,0.2485,0.253,0.235,0.249,0.2471,0.2558,0.2558,0.2558,0.2558,0.2559,0.2559,0.166,0.1721,0.1776,0.1899,0.1979,0.2119,0.2316,0.2377,0.2489,0.2378,0.2558,0.2508,0.2502,0.2481,0.2563,0.2563,0.2562,0.2562,0.2561,0.157,0.163,0.1686,0.176,0.1911,0.1981,0.22,0.2251,0.2297,0.2263,0.229,0.2302,0.2257,0.2258,0.2226,0.2236,0.2232,0.2229,0,0.1504,0.1538,0.1601,0.1666,0.1729,0.1882,0.1872,0.1978,0.2078,0.2007,0.2308,0.2337,0.2343,0.229,0.2286,0.2246,0,0,0,0.1448,0.1481,0.1488,0.1573,0.1626,0.1697,0.1855,0.1822,0.206,0.2019,0.2141,0.2164,0.2407,0.2577,0.2536,0.2529,0.2494,0,0]},{"header":{"parameterUnit":"m.s-1","parameterCategory":2,"la1":30.2992,"la2":30.254,"lo1":-89.0895,"lo2":-89.0443,"dy":0.0025,"dx":0.0025,"nx":19,"ny":19,"refTime":"2026-04-04T21:00:00:Z","depth":"4","parameterNumber":3,"parameterNumberName":"V-component_of_CURRENTS"},"data":[0,0,0,0.031,0.031,0.0309,0.0309,0.0287,0.0287,0,0,0,0,0,0,0,0,0,0,0,0.0312,0.0312,0.031,0.031,0.0309,0.0309,0.0287,0.0287,0,0,0,0,0,0,0,0,0,0,0,0.0311,0.0312,0.0312,0.0311,0.0309,0.0309,0.0288,0.0292,0,0,0,0,0,0,0,0,0,0,0.0296,0.0299,0.0312,0.0312,0.0311,0.0309,0.0309,0.0293,0.0292,0.0284,0,0.0289,0,0.029,0.0286,0.0286,0,0,0,0.0305,0.03,0.0303,0.0312,0.0311,0.0309,0.0308,0.0292,0.0291,0.0283,0.0289,0.0288,0.0289,0.0286,0.0286,0.0301,0.0301,0,0,0.0305,0.0306,0.0303,0.0302,0.0317,0.0308,0.0308,0.0292,0.0292,0.0289,0.0288,0.0289,0.0286,0.0285,0.0301,0.0301,0,0,0,0.0309,0.0306,0.0309,0.0303,0.0306,0.0308,0.0308,0.0292,0.0294,0.0288,0.0289,0.0286,0.0285,0.03,0.0301,0.0369,0,0,0,0.0309,0.0309,0.031,0.0309,0.0306,0.0301,0.0309,0.0296,0.0294,0.0289,0.0285,0.0285,0.03,0.0301,0.0367,0.0412,0,0,0,0.031,0.0309,0.0312,0.031,0.0312,0.0301,0.0302,0.0295,0.0294,0.0286,0.0285,0.03,0.0301,0.0364,0.0408,0.0428,0,0,0,0.0307,0.0325,0.0312,0.0337,0.0312,0.0338,0.0303,0.0311,0.0309,0.0285,0.03,0.0301,0.0363,0.0405,0.0426,0.0424,0,0,0,0.033,0.0327,0.0345,0.0334,0.0377,0.0337,0.0375,0.0351,0.0316,0.0302,0.0302,0.0367,0.0407,0.0428,0.0468,0,0,0,0,0.0354,0.0371,0.0381,0.0402,0.0408,0.0422,0.0392,0.0378,0.0365,0.0318,0.0364,0.0387,0.0398,0.0388,0.0305,0.0305,0.0304,0.0304,0.0304,0.0385,0.0402,0.0444,0.0465,0.048,0.0479,0.0482,0.0456,0.0413,0.0414,0.0439,0.05,0.0493,0.0426,0.0426,0.0427,0.0427,0.0427,0.0427,0.0442,0.0475,0.0499,0.0546,0.056,0.0589,0.0576,0.0549,0.0541,0.0495,0.0501,0.0457,0.0434,0.0433,0.0432,0.0431,0.043,0.043,0.0429,0.0472,0.0492,0.0524,0.0598,0.0659,0.0674,0.0728,0.0692,0.062,0.0628,0.0597,0.0546,0.0543,0.0625,0.0625,0.0625,0.0626,0.0626,0.0626,0.0487,0.0522,0.0585,0.0661,0.0724,0.0798,0.082,0.0808,0.0744,0.0687,0.0652,0.0567,0.056,0.0554,0.0631,0.063,0.0629,0.0629,0.0628,0.0526,0.0543,0.0641,0.0707,0.0849,0.0901,0.0928,0.0881,0.086,0.0805,0.0701,0.0696,0.0671,0.0662,0.0658,0.0768,0.0769,0.0769,0,0.0546,0.0563,0.0693,0.0806,0.0918,0.0966,0.0968,0.0945,0.0843,0.0824,0.0842,0.0728,0.0722,0.0694,0.0686,0.0683,0,0,0,0.0575,0.0615,0.0705,0.082,0.0948,0.0965,0.097,0.0936,0.0863,0.0839,0.0776,0.0774,0.0729,0.0645,0.0593,0.0585,0.0573,0,0]}]]